College Park, MD

12:05 PM EST on December 12, 2019 (GMT -0500)
College Park

Weather History for KCGS - October, 2019

Change the Weather History Date:

Wednesday, October 9, 2019

  Actual Average Record
Temperature  
Mean Temperature 61 °F -  
Max Temperature 69 °F 70 °F 91 °F (2007)
Min Temperature 53 °F 50 °F 33 °F (1988)
Degree Days  
Heating Degree Days 4    
Growing Degree Days 11 (Base 50)    
Moisture  
Dew Point 45 °F    
Average Humidity 59    
Maximum Humidity 79    
Minimum Humidity 41    
Precipitation  
Precipitation 0.00 in - - ()
Sea Level Pressure  
Sea Level Pressure 30.22 in    
Wind  
Wind Speed 4 mph (NNE)    
Max Wind Speed 10 mph    
Max Gust Speed -    
Visibility 10 miles    
Events      
Averages and records for this station are not official NWS values.
T = Trace of Precipitation, MM = Missing Value Source: NWS Daily Summary

Daily Weather History Graph

Daily Weather History Graph

Search for Another Location

Airport or City:

Astronomy

Oct. 09, 2019 Rise Set
Actual Time 7:11 AM EDT 6:38 PM EDT
Civil Twilight 6:44 AM EDT 7:05 PM EDT
Nautical Twilight 6:13 AM EDT 7:35 PM EDT
Astronomical Twilight 5:42 AM EDT 8:06 PM EDT
Moon 5:06 PM EDT (10/9) 2:58 AM EDT (10/9)
Length of Visible Light 12h 20m
Length of Day
11h 27m
Waxing Gibbous, 85% of the Moon is Illuminated
Oct 9
Waxing Gibbous
Oct 13
Full
Oct 21
Last Quarter
Oct 27
New
Nov 4
First Quarter

Hourly Weather History & Observations

Time (EDT) Temp. Dew Point Humidity Pressure Visibility Wind Dir Wind Speed Gust Speed Precip Events Conditions
12:03 AM 61.2 °F 39.7 °F 45% 30.19 in 10.0 mi North 3.5 mph - N/A   Overcast
12:23 AM 61.2 °F 39.4 °F 45% 30.19 in 10.0 mi North 3.5 mph - N/A   Mostly Cloudy
12:43 AM 61.2 °F 39.2 °F 44% 30.19 in 10.0 mi NNE 5.8 mph - N/A   Overcast
1:03 AM 61.0 °F 38.5 °F 43% 30.18 in 10.0 mi NNE 4.6 mph - N/A   Mostly Cloudy
1:23 AM 61.0 °F 38.3 °F 43% 30.19 in 10.0 mi NNE 4.6 mph - N/A   Mostly Cloudy
1:43 AM 60.8 °F 38.5 °F 44% 30.19 in 10.0 mi NNE 4.6 mph - N/A   Overcast
2:03 AM 60.8 °F 38.7 °F 44% 30.19 in 10.0 mi North 5.8 mph - N/A   Overcast
2:23 AM 60.1 °F 39.6 °F 47% 30.19 in 10.0 mi North 4.6 mph - N/A   Overcast
2:43 AM 58.8 °F 41.2 °F 52% 30.19 in 10.0 mi North 4.6 mph - N/A   Overcast
3:03 AM 58.1 °F 42.3 °F 56% 30.19 in 10.0 mi NNW 3.5 mph - N/A   Overcast
3:23 AM 56.3 °F 44.4 °F 64% 30.19 in 10.0 mi North 3.5 mph - N/A   Mostly Cloudy
3:43 AM 54.9 °F 46.0 °F 72% 30.18 in 10.0 mi Calm Calm - N/A   Overcast
4:03 AM 55.4 °F 45.3 °F 69% 30.18 in 10.0 mi North 4.6 mph - N/A   Overcast
4:23 AM 54.5 °F 45.7 °F 72% 30.19 in 7.0 mi NNW 4.6 mph - N/A   Overcast
4:43 AM 53.6 °F 46.6 °F 77% 30.20 in 10.0 mi Calm Calm - N/A   Mostly Cloudy
5:03 AM 53.1 °F 46.8 °F 79% 30.20 in 10.0 mi Calm Calm - N/A   Mostly Cloudy
5:23 AM 53.1 °F 46.6 °F 79% 30.20 in 10.0 mi Calm Calm - N/A   Mostly Cloudy
5:43 AM 53.1 °F 46.8 °F 79% 30.20 in 10.0 mi NNW 3.5 mph - N/A   Mostly Cloudy
6:03 AM 53.2 °F 46.6 °F 78% 30.21 in 10.0 mi North 4.6 mph - N/A   Scattered Clouds
6:23 AM 53.6 °F 46.9 °F 78% 30.21 in 10.0 mi Calm Calm - N/A   Scattered Clouds
6:43 AM 53.6 °F 47.3 °F 79% 30.22 in 10.0 mi Calm Calm - N/A   Mostly Cloudy
7:03 AM 53.6 °F 46.9 °F 78% 30.22 in 10.0 mi NNE 3.5 mph - N/A   Mostly Cloudy
7:23 AM 53.8 °F 46.6 °F 77% 30.22 in 10.0 mi North 3.5 mph - N/A   Mostly Cloudy
7:43 AM 54.0 °F 46.8 °F 77% 30.22 in 10.0 mi North 3.5 mph - N/A   Overcast
8:03 AM 54.5 °F 46.2 °F 74% 30.22 in 10.0 mi North 5.8 mph - N/A   Overcast
8:23 AM 54.7 °F 46.0 °F 73% 30.23 in 10.0 mi NNE 4.6 mph - N/A   Overcast
8:43 AM 55.4 °F 46.4 °F 72% 30.23 in 10.0 mi North 8.1 mph - N/A   Overcast
9:03 AM 55.6 °F 46.0 °F 70% 30.24 in 10.0 mi NNE 4.6 mph - N/A   Mostly Cloudy
9:23 AM 55.8 °F 45.5 °F 68% 30.25 in 10.0 mi NNE 6.9 mph - N/A   Scattered Clouds
9:43 AM 58.6 °F 46.0 °F 63% 30.25 in 10.0 mi North 4.6 mph - N/A   Mostly Cloudy
10:03 AM 60.1 °F 46.4 °F 61% 30.25 in 10.0 mi North 4.6 mph - N/A   Overcast
10:43 AM 61.7 °F 45.9 °F 56% 30.26 in 10.0 mi NE 6.9 mph - N/A   Overcast
11:03 AM 61.9 °F 45.9 °F 56% 30.26 in 10.0 mi North 5.8 mph - N/A   Overcast
11:23 AM 62.8 °F 46.0 °F 54% 30.25 in 10.0 mi Calm Calm - N/A   Overcast
11:43 AM 63.1 °F 46.2 °F 54% 30.25 in 10.0 mi North 6.9 mph - N/A   Overcast
12:03 PM 63.0 °F 46.2 °F 54% 30.25 in 10.0 mi Calm Calm - N/A   Overcast
12:23 PM 63.0 °F 46.0 °F 54% 30.24 in 10.0 mi North 5.8 mph - N/A   Mostly Cloudy
12:43 PM 65.3 °F 46.0 °F 50% 30.23 in 10.0 mi NNE 6.9 mph - N/A   Scattered Clouds
1:03 PM 65.7 °F 46.2 °F 49% 30.22 in 10.0 mi North 4.6 mph - N/A   Clear
1:23 PM 66.9 °F 44.8 °F 45% 30.21 in 10.0 mi NNE 8.1 mph - N/A   Clear
1:43 PM 67.5 °F 44.4 °F 43% 30.20 in 10.0 mi NE 8.1 mph - N/A   Clear
2:03 PM 68.9 °F 44.4 °F 41% 30.20 in 10.0 mi ENE 9.2 mph - N/A   Clear
2:23 PM 68.4 °F 44.1 °F 41% 30.19 in 10.0 mi ENE 9.2 mph - N/A   Clear
3:03 PM 68.9 °F 44.8 °F 42% 30.19 in 10.0 mi NNE 4.6 mph - N/A   Scattered Clouds
3:23 PM 69.1 °F 44.6 °F 41% 30.19 in 10.0 mi East 5.8 mph - N/A   Mostly Cloudy
3:43 PM 68.4 °F 46.2 °F 45% 30.19 in 10.0 mi East 8.1 mph - N/A   Scattered Clouds
4:03 PM 68.2 °F 46.6 °F 46% 30.19 in 10.0 mi ENE 5.8 mph - N/A   Scattered Clouds
4:23 PM 67.8 °F 46.4 °F 46% 30.19 in 10.0 mi ENE 9.2 mph - N/A   Scattered Clouds
4:43 PM 66.0 °F 46.4 °F 49% 30.19 in 10.0 mi East 8.1 mph - N/A   Scattered Clouds
5:03 PM 65.3 °F 46.8 °F 51% 30.20 in 10.0 mi ENE 10.4 mph - N/A   Clear
5:23 PM 64.0 °F 46.9 °F 54% 30.20 in 10.0 mi ENE 5.8 mph - N/A   Clear
5:43 PM 63.3 °F 46.9 °F 55% 30.20 in 10.0 mi ENE 8.1 mph - N/A   Clear
6:03 PM 62.4 °F 46.8 °F 57% 30.21 in 10.0 mi ENE 6.9 mph - N/A   Clear
6:23 PM 61.0 °F 46.6 °F 59% 30.21 in 10.0 mi ENE 9.2 mph - N/A   Clear
6:43 PM 60.1 °F 46.6 °F 61% 30.22 in 10.0 mi ENE 5.8 mph - N/A   Clear
7:03 PM 59.4 °F 46.6 °F 63% 30.22 in 10.0 mi ENE 4.6 mph - N/A   Clear
7:23 PM 58.6 °F 46.0 °F 63% 30.22 in 10.0 mi Calm Calm - N/A   Clear
7:43 PM 58.6 °F 46.4 °F 64% 30.23 in 10.0 mi Calm Calm - N/A   Mostly Cloudy
8:03 PM 59.5 °F 46.4 °F 62% 30.23 in 10.0 mi Calm Calm - N/A   Overcast
8:23 PM 59.5 °F 46.4 °F 62% 30.23 in 10.0 mi NNE 3.5 mph - N/A   Overcast
8:43 PM 59.4 °F 45.7 °F 61% 30.24 in 10.0 mi NNE 5.8 mph - N/A   Overcast
9:03 PM 59.2 °F 45.1 °F 60% 30.24 in 10.0 mi ENE 5.8 mph - N/A   Overcast
9:23 PM 59.0 °F 45.0 °F 60% 30.24 in 10.0 mi ENE 8.1 mph - N/A   Overcast
9:43 PM 58.5 °F 44.8 °F 60% 30.25 in 10.0 mi NE 4.6 mph - N/A   Overcast
10:03 PM 58.1 °F 44.8 °F 61% 30.25 in 10.0 mi ENE 4.6 mph - N/A   Overcast
10:23 PM 57.7 °F 44.6 °F 62% 30.25 in 10.0 mi ENE 4.6 mph - N/A   Overcast
10:43 PM 57.6 °F 43.9 °F 60% 30.26 in 10.0 mi ENE 4.6 mph - N/A   Overcast
11:03 PM 57.4 °F 43.7 °F 60% 30.26 in 10.0 mi NNE 4.6 mph - N/A   Overcast
11:23 PM 57.4 °F 43.3 °F 59% 30.26 in 10.0 mi NE 5.8 mph - N/A   Overcast
11:43 PM 57.2 °F 43.2 °F 59% 30.26 in 10.0 mi NNE 4.6 mph - N/A   Overcast